Location: Unspecified
(0.0000°N, 0.0000°E)
Time: 07:54:00
(UTC+00:00)

Vanguard 2 Rocket - Pass Details

Date: 21 December 2018
Orbit: 554 x 3326 km, 32.9° (Epoch: 16 June)

Event Time Altitude Azimuth Distance (km) Brightness Sun altitude
Rises 23:32:21 0° 233° (SW) 7,054 11.7 -65.7°
Reaches altitude 10° 23:37:32 10° 232° (SW) 5,769 11.1 -66.0°
Enters shadow 23:43:38 26° 230° (SW) 4,181 10.2 -66.3°
Maximum altitude 23:54:00 83° 145° (SE) 1,996 - -66.5°
Drops below altitude 10° 00:03:05 10° 58° (ENE) 3,390 - -66.5°
Sets 00:05:21 0° 57° (ENE) 4,092 - -66.5°
